| time (UTC) | temp F | wind direction | speed knots | gust knots | rain 1hr in | rain 24hr in | rain mn in | humidity % | barometer mb |
| 20260506161514 | 62 | 148 | 1.7 | 7.0 | 0.09 | 0.12 | 0.12 | 92 | 1006.7 |
| 20260506160031 | 62 | 195 | 0.9 | 4.3 | 0.09 | 0.10 | 0.10 | 92 | 1006.9 |
| 20260506154523 | 63 | 360 | 0.9 | 8.7 | 0.08 | 0.08 | 0.08 | 91 | 1007.2 |
| 20260506153010 | 63 | 155 | 0.9 | 3.5 | 0.05 | 0.05 | 0.05 | 90 | 1007.1 |
| 20260506151517 | 63 | 195 | 0.0 | 5.2 | 0.03 | 0.03 | 0.03 | 88 | 1007.1 |
| 20260506150020 | 64 | 163 | 0.9 | 7.8 | 0.01 | 0.01 | 0.01 | 86 | 1007.2 |
| 20260506144517 | 64 | 169 | 0.9 | 4.3 | 0.00 | 0.00 | 0.00 | 84 | 1007.3 |
| 20260506143016 | 65 | 200 | 0.9 | 7.8 | 0.00 | 0.00 | 0.00 | 81 | 1007.6 |
| 20260506141513 | 66 | 360 | 0.9 | 7.0 | 0.00 | 0.00 | 0.00 | 78 | 1007.6 |
| 20260506140016 | 67 | 117 | 1.7 | 7.8 | 0.00 | 0.00 | 0.00 | 76 | 1007.5 |
| 20260506134524 | 67 | 209 | 1.7 | 7.0 | 0.00 | 0.00 | 0.00 | 76 | 1007.3 |
| 20260506133020 | 66 | 360 | 1.7 | 13.9 | 0.00 | 0.00 | 0.00 | 78 | 1007.0 |
| 20260506131537 | 66 | 142 | 1.7 | 11.3 | 0.00 | 0.00 | 0.00 | 77 | 1007.1 |
| 20260506130019 | 65 | 360 | 1.7 | 7.8 | 0.00 | 0.00 | 0.00 | 79 | 1007.1 |
| 20260506124520 | 65 | 360 | 0.9 | 7.0 | 0.00 | 0.00 | 0.00 | 79 | 1007.1 |
| 20260506123022 | 64 | 196 | 1.7 | 10.4 | 0.00 | 0.00 | 0.00 | 80 | 1007.5 |
| 20260506121521 | 63 | 179 | 0.9 | 7.8 | 0.00 | 0.00 | 0.00 | 80 | 1007.8 |
| 20260506120021 | 63 | 192 | 1.7 | 6.1 | 0.00 | 0.00 | 0.00 | 81 | 1007.7 |
| 20260506114521 | 62 | 123 | 1.7 | 9.6 | 0.00 | 0.00 | 0.00 | 83 | 1007.5 |
| 20260506113024 | 60 | 167 | 1.7 | 7.8 | 0.00 | 0.00 | 0.00 | 87 | 1007.4 |
| 20260506111506 | 57 | 101 | 0.9 | 4.3 | 0.00 | 0.00 | 0.00 | 93 | 1007.2 |
| 20260506110007 | 54 | 360 | 0.0 | 0.0 | 0.00 | 0.00 | 0.00 | 93 | 1007.3 |
| 20260506104510 | 53 | 341 | 0.0 | 0.0 | 0.00 | 0.00 | 0.00 | 93 | 1007.2 |
| 20260506103031 | 52 | 360 | 0.0 | 0.0 | 0.00 | 0.00 | 0.00 | 93 | 1007.2 |
| 20260506101506 | 52 | 360 | 0.0 | 0.0 | 0.00 | 0.00 | 0.00 | 92 | 1007.4 |
| 20260506100010 | 52 | 340 | 0.0 | 0.0 | 0.00 | 0.00 | 0.00 | 92 | 1007.3 |
| 20260506094512 | 51 | 342 | 0.0 | 0.0 | 0.00 | 0.00 | 0.00 | 91 | 1007.2 |
| 20260506093020 | 52 | 342 | 0.0 | 0.0 | 0.00 | 0.00 | 0.00 | 90 | 1007.2 |
| 20260506091518 | 52 | 342 | 0.0 | 0.0 | 0.00 | 0.00 | 0.00 | 90 | 1007.2 |
| 20260506090026 | 52 | 342 | 0.0 | 0.0 | 0.00 | 0.00 | 0.00 | 88 | 1007.3 |
| 20260506084510 | 53 | 342 | 0.0 | 0.0 | 0.00 | 0.00 | 0.00 | 88 | 1007.6 |
| 20260506083014 | 54 | 342 | 0.0 | 1.7 | 0.00 | 0.00 | 0.00 | 86 | 1007.7 |
| 20260506081515 | 55 | 342 | 0.0 | 1.7 | 0.00 | 0.00 | 0.00 | 84 | 1007.7 |
| 20260506073012 | 58 | 360 | 0.0 | 2.6 | 0.00 | 0.00 | 0.00 | 79 | 1007.8 |
| 20260506071514 | 59 | 360 | 0.0 | 3.5 | 0.00 | 0.00 | 0.00 | 77 | 1008.1 |
| 20260506061515 | 60 | 360 | 0.9 | 3.5 | 0.00 | 0.00 | 0.00 | 79 | 1008.5 |
| 20260506044522 | 66 | 360 | 2.6 | 7.0 | 0.00 | 0.00 | 0.00 | 72 | 1008.3 |
| 20260506043024 | 70 | 76 | 0.0 | 2.6 | 0.00 | 0.00 | 0.00 | 56 | 1008.2 |
| 20260506041527 | 71 | 276 | 0.0 | 6.1 | 0.00 | 0.00 | 0.00 | 50 | 1007.7 |
| 20260506040027 | 70 | 270 | 0.0 | 3.5 | 0.00 | 0.00 | 0.00 | 51 | 1007.4 |
| 20260506034519 | 70 | 274 | 0.0 | 2.6 | 0.00 | 0.00 | 0.00 | 51 | 1007.1 |
| 20260506033023 | 72 | 291 | 0.9 | 5.2 | 0.00 | 0.00 | 0.00 | 49 | 1007.0 |
| 20260506031526 | 71 | 167 | 0.9 | 7.0 | 0.00 | 0.00 | 0.00 | 47 | 1007.0 |
| 20260506030033 | 68 | 238 | 1.7 | 7.8 | 0.00 | 0.00 | 0.00 | 52 | 1006.9 |
| 20260506024540 | 64 | 282 | 0.0 | 2.6 | 0.00 | 0.00 | 0.00 | 72 | 1006.9 |
| 20260506023021 | 65 | 51 | 0.0 | 0.9 | 0.00 | 0.00 | 0.00 | 73 | 1007.1 |
| 20260506021523 | 66 | 53 | 0.0 | 0.9 | 0.00 | 0.00 | 0.00 | 70 | 1007.2 |
| 20260506020024 | 67 | 51 | 0.0 | 2.6 | 0.00 | 0.00 | 0.00 | 68 | 1007.2 |
| 20260506014532 | 67 | 352 | 0.0 | 1.7 | 0.00 | 0.00 | 0.00 | 67 | 1007.2 |
| 20260506013028 | 66 | 360 | 0.0 | 3.5 | 0.00 | 0.00 | 0.00 | 70 | 1006.9 |
| 20260506011523 | 66 | 360 | 0.0 | 1.7 | 0.00 | 0.00 | 0.00 | 69 | 1006.8 |
| 20260506010008 | 66 | 360 | 0.0 | 1.7 | 0.00 | 0.00 | 0.00 | 67 | 1006.8 |
| 20260506004507 | 67 | 360 | 0.0 | 1.7 | 0.00 | 0.00 | 0.00 | 65 | 1006.7 |
| 20260506003016 | 67 | 360 | 0.9 | 1.7 | 0.00 | 0.00 | 0.00 | 64 | 1006.5 |
| 20260506001522 | 68 | 360 | 0.0 | 1.7 | 0.00 | 0.00 | 0.00 | 62 | 1006.4 |
| 20260506000024 | 70 | 32 | 0.0 | 1.7 | 0.00 | 0.00 | 0.00 | 59 | 1006.3 |
| 20260505234506 | 71 | 30 | 0.0 | 1.7 | 0.00 | 0.00 | 0.00 | 56 | 1006.2 |
| 20260505233008 | 72 | 13 | 0.9 | 3.5 | 0.00 | 0.00 | 0.00 | 53 | 1005.9 |
| 20260505231515 | 74 | 76 | 0.0 | 6.1 | 0.00 | 0.00 | 0.00 | 48 | 1005.9 |
| 20260505230043 | 77 | 144 | 0.0 | 3.5 | 0.00 | 0.00 | 0.00 | 42 | 1005.6 |
| 20260505224525 | 78 | 244 | 0.0 | 7.0 | 0.00 | 0.00 | 0.00 | 37 | 1005.4 |
| 20260505223008 | 79 | 190 | 0.9 | 4.3 | 0.00 | 0.00 | 0.00 | 35 | 1005.3 |
| 20260505221514 | 79 | 204 | 2.6 | 7.8 | 0.00 | 0.00 | 0.00 | 34 | 1004.8 |
| 20260505220024 | 80 | 32 | 3.5 | 12.2 | 0.00 | 0.00 | 0.00 | 33 | 1004.6 |
| 20260505214526 | 80 | 299 | 1.7 | 15.6 | 0.00 | 0.00 | 0.00 | 33 | 1004.3 |
| 20260505213023 | 81 | 235 | 5.2 | 13.0 | 0.00 | 0.00 | 0.00 | 32 | 1004.1 |
| 20260505211514 | 82 | 175 | 1.7 | 8.7 | 0.00 | 0.00 | 0.00 | 35 | 1003.9 |
| 20260505210015 | 82 | 194 | 5.2 | 15.6 | 0.00 | 0.00 | 0.00 | 32 | 1003.7 |
| 20260505204519 | 83 | 229 | 6.1 | 13.9 | 0.00 | 0.00 | 0.00 | 32 | 1003.7 |
| 20260505203026 | 83 | 284 | 4.3 | 11.3 | 0.00 | 0.00 | 0.00 | 34 | 1004.0 |
| 20260505201526 | 82 | 352 | 3.5 | 17.4 | 0.00 | 0.00 | 0.00 | 34 | 1004.1 |
| 20260505200010 | 82 | 26 | 2.6 | 15.6 | 0.00 | 0.00 | 0.00 | 37 | 1004.2 |
| 20260505194516 | 83 | 270 | 3.5 | 15.6 | 0.00 | 0.00 | 0.00 | 37 | 1004.1 |
| 20260505193031 | 82 | 109 | 3.5 | 12.2 | 0.00 | 0.00 | 0.00 | 38 | 1004.2 |
| 20260505191523 | 82 | 217 | 5.2 | 12.2 | 0.00 | 0.00 | 0.00 | 36 | 1004.5 |
| 20260505190026 | 83 | 218 | 5.2 | 13.9 | 0.00 | 0.00 | 0.00 | 39 | 1004.5 |
| 20260505184512 | 82 | 286 | 2.6 | 12.2 | 0.00 | 0.00 | 0.00 | 39 | 1004.6 |
| 20260505183017 | 81 | 142 | 4.3 | 15.6 | 0.00 | 0.00 | 0.00 | 39 | 1005.0 |
| 20260505181522 | 81 | 225 | 3.5 | 13.9 | 0.00 | 0.00 | 0.00 | 41 | 1004.9 |
| 20260505180042 | 82 | 213 | 2.6 | 14.8 | 0.00 | 0.00 | 0.00 | 39 | 1005.0 |
| 20260505174527 | 82 | 171 | 4.3 | 16.5 | 0.00 | 0.00 | 0.00 | 39 | 1005.0 |
| 20260505173014 | 81 | 163 | 2.6 | 13.0 | 0.00 | 0.00 | 0.00 | 43 | 1005.2 |
| 20260505171520 | 80 | 262 | 3.5 | 14.8 | 0.00 | 0.00 | 0.00 | 44 | 1005.4 |
| 20260505170025 | 80 | 250 | 2.6 | 11.3 | 0.00 | 0.00 | 0.00 | 44 | 1005.6 |
| 20260505164527 | 79 | 200 | 3.5 | 9.6 | 0.00 | 0.00 | 0.00 | 45 | 1006.1 |
| 20260505163029 | 78 | 204 | 2.6 | 12.2 | 0.00 | 0.00 | 0.00 | 46 | 1006.3 |